Location: Helsinki
(60.1699°N, 24.9384°E)
Time: 23:46:50
(UTC+02:00)

Transit 4A - Pass Details

Date: 28 October 2020
Orbit: 862 x 982 km, 66.8° (Epoch: 25 November)

Event Time Altitude Azimuth Distance (km) Brightness Sun altitude
Rises 22:41:48 0° 308° (NW) 3,693 11.7 -40.9°
Reaches altitude 10° 22:44:22 10° 308° (NW) 2,747 10.9 -41.1°
Enters shadow 22:47:02 27° 308° (NW) 1,809 9.7 -41.2°
